Willimantic, CT

9:02 AM EST on November 24, 2017 (GMT -0500)
Windham

Weather History for KIJD - February, 2013

Change the Weather History Date:

Tuesday, February 5, 2013

  Actual Average Record
Temperature  
Mean Temperature 24 °F -  
Max Temperature 27 °F 33 °F 65 °F (1991)
Min Temperature 21 °F 12 °F -19 °F (1965)
Degree Days  
Heating Degree Days 41    
Moisture  
Dew Point 16 °F    
Average Humidity 70    
Maximum Humidity 86    
Minimum Humidity 50    
Precipitation  
Precipitation 0.01 in - - ()
Sea Level Pressure  
Sea Level Pressure 29.97 in    
Wind  
Wind Speed 2 mph (NE)    
Max Wind Speed 5 mph    
Max Gust Speed -    
Visibility 5 miles    
Events Snow    
Averages and records for this station are not official NWS values.
T = Trace of Precipitation, MM = Missing Value Source: NWS Daily Summary

Daily Weather History Graph

Daily Weather History Graph

Search for Another Location

Airport or City:

Trip Planner

Search our weather history database for the weather conditions in past years. The results will help you decide how hot, cold, wet, or windy it might be!

Date:

Astronomy

Feb. 05, 2013 Rise Set
Actual Time 6:56 AM EST 5:09 PM EST
Civil Twilight 6:27 AM EST 5:38 PM EST
Nautical Twilight 5:54 AM EST 6:11 PM EST
Astronomical Twilight 5:21 AM EST 6:44 PM EST
Moon 2:36 AM EST (2/5) 12:22 PM EST (2/5)
Length of Visible Light 11h 11m
Length of Day
10h 13m
Waning Crescent, 27% of the Moon is Illuminated
Feb 5
Waning Crescent
Feb 10
New
Feb 17
First Quarter
Feb 25
Full
Mar 4
Last Quarter

Hourly Weather History & Observations

Time (EST) Temp. Windchill Dew Point Humidity Pressure Visibility Wind Dir Wind Speed Gust Speed Precip Events Conditions
1:52 AM 23.0 °F 18.4 °F 7.0 °F 50% 29.97 in 10.0 mi ENE 3.5 mph - N/A   Overcast
2:52 AM 23.0 °F 18.4 °F 8.1 °F 53% 29.96 in 10.0 mi NE 3.5 mph - N/A   Overcast
3:52 AM 21.9 °F - 8.1 °F 55% 29.96 in 10.0 mi Calm Calm - N/A   Overcast
4:52 AM 23.0 °F - 9.0 °F 55% 29.97 in 10.0 mi Calm Calm - N/A   Overcast
5:52 AM 23.0 °F 17.0 °F 10.0 °F 58% 29.96 in 10.0 mi NE 4.6 mph - N/A   Overcast
6:52 AM 23.0 °F - 10.0 °F 58% 29.99 in 10.0 mi Calm Calm - N/A   Overcast
7:52 AM 23.0 °F - 10.0 °F 58% 29.99 in 10.0 mi Calm Calm - N/A   Overcast
8:52 AM 24.1 °F 19.7 °F 10.0 °F 55% 30.01 in 7.0 mi NNE 3.5 mph - N/A   Overcast
9:52 AM 24.1 °F - 12.0 °F 60% 30.02 in 3.0 mi Calm Calm - 0.00 in Snow Light Snow
10:22 AM 24.8 °F 20.5 °F 14.0 °F 64% 30.01 in 2.5 mi NE 3.5 mph - 0.00 in Snow Light Snow
10:32 AM 23.0 °F 17.0 °F 14.0 °F 68% 30.01 in 3.0 mi East 4.6 mph - 0.00 in Snow Light Snow
10:40 AM 23.0 °F 18.4 °F 14.0 °F 68% 30.02 in 2.5 mi Variable 3.5 mph - 0.00 in Snow Light Snow
10:52 AM 23.0 °F 18.4 °F 14.0 °F 68% 30.02 in 2.5 mi East 3.5 mph - 0.00 in Snow Light Snow
11:00 AM 23.0 °F - 14.0 °F 68% 30.01 in 3.0 mi Calm Calm - 0.00 in Snow Light Snow
11:52 AM 24.1 °F 19.7 °F 16.0 °F 71% 30.00 in 4.0 mi NE 3.5 mph - 0.00 in Snow Light Snow
12:52 PM 25.0 °F 20.7 °F 16.0 °F 69% 29.98 in 10.0 mi NE 3.5 mph - 0.00 in   Overcast
1:52 PM 26.1 °F - 16.0 °F 66% 29.97 in 10.0 mi Calm Calm - N/A   Overcast
2:52 PM 26.1 °F 21.9 °F 17.1 °F 69% 29.96 in 10.0 mi East 3.5 mph - N/A   Overcast
3:52 PM 27.0 °F 23.0 °F 17.1 °F 66% 29.94 in 10.0 mi NE 3.5 mph - N/A   Overcast
4:52 PM 26.1 °F - 17.1 °F 69% 29.95 in 10.0 mi Calm Calm - N/A   Overcast
5:37 PM 26.6 °F - 17.6 °F 69% 29.94 in 2.5 mi Calm Calm - 0.00 in Snow Light Snow
5:41 PM 26.6 °F - 17.6 °F 69% 29.94 in 3.0 mi Calm Calm - 0.00 in Snow Light Snow
5:52 PM 26.1 °F - 19.0 °F 75% 29.95 in 3.0 mi Calm Calm - 0.00 in Snow Light Snow
6:06 PM 26.6 °F - 19.4 °F 74% 29.95 in 2.5 mi Calm Calm - 0.00 in Snow Light Snow
6:19 PM 24.8 °F - 19.4 °F 80% 29.94 in 1.5 mi Calm Calm - 0.00 in Snow Light Snow
6:52 PM 25.0 °F - 21.0 °F 85% 29.95 in 1.8 mi Calm Calm - 0.01 in Snow Light Snow
7:15 PM 24.8 °F - 19.4 °F 80% 29.94 in 2.0 mi Calm Calm - 0.00 in Snow Light Snow
7:30 PM 24.8 °F - 21.2 °F 86% 29.94 in 2.5 mi Calm Calm - 0.00 in Snow Light Snow
7:52 PM 25.0 °F - 21.0 °F 85% 29.95 in 2.0 mi Calm Calm - 0.00 in Snow Light Snow
8:01 PM 24.8 °F - 21.2 °F 86% 29.94 in 1.8 mi Calm Calm - 0.00 in Snow Light Snow
8:09 PM 24.8 °F - 21.2 °F 86% 29.94 in 2.0 mi Calm Calm - 0.00 in Snow Light Snow
8:30 PM 24.8 °F - 21.2 °F 86% 29.94 in 3.0 mi Calm Calm - 0.00 in Snow Light Snow
8:52 PM 25.0 °F - 21.0 °F 85% 29.95 in 5.0 mi Calm Calm - 0.00 in   Overcast
9:52 PM 25.0 °F 20.7 °F 19.9 °F 81% 29.95 in 4.0 mi NE 3.5 mph - 0.00 in   Haze
10:52 PM 25.0 °F - 19.9 °F 81% 29.94 in 5.0 mi Calm Calm - N/A   Haze
11:52 PM 25.0 °F - 19.9 °F 81% 29.95 in 7.0 mi Calm Calm - N/A   Overcast